DW5729 Weather Reports


time (UTC)temp
F
wind
direction
speed
knots
gust
knots
rain 1hr
in
rain 24hr
in
rain mn
in
humidity
%
barometer
mb
20260504194518 66 93 2.6 8.7 0.00 0.00 0.00 57 1009.9
20260504193018 67 196 2.6 9.6 0.00 0.00 0.00 55 1010.1
20260504191523 68 164 3.5 7.8 0.00 0.00 0.00 52 1010.2
20260504190013 72 200 4.3 13.0 0.00 0.00 0.00 36 1010.3
20260504184509 71 273 4.3 12.2 0.00 0.00 0.00 36 1010.5
20260504183007 71 145 5.2 10.4 0.00 0.00 0.00 36 1010.7
20260504181505 71 207 2.6 12.2 0.00 0.00 0.00 36 1010.9
20260504180006 70 223 4.3 13.0 0.00 0.00 0.00 37 1011.1
20260504174502 70 211 4.3 10.4 0.00 0.00 0.00 37 1011.3
20260504173103 70 281 4.3 11.3 0.00 0.00 0.00 37 1011.4
20260504171559 68 219 4.3 14.8 0.00 0.00 0.00 37 1011.5
20260504081556 51 256 1.7 6.1 0.00 0.00 0.00 55 1013.7
20260504044518 53 269 0.9 7.0 0.00 0.00 0.00 56 1012.8
20260504043017 53 267 1.7 7.0 0.00 0.00 0.00 53 1012.7
20260504041515 54 247 2.6 9.6 0.00 0.00 0.00 53 1012.7
20260504040011 54 219 2.6 7.8 0.00 0.00 0.00 52 1012.6
20260504034510 54 237 4.3 8.7 0.00 0.00 0.00 51 1012.6
20260504033008 54 263 2.6 7.0 0.00 0.00 0.00 51 1012.6
20260504031509 55 233 0.9 7.0 0.00 0.00 0.00 52 1012.4
20260504030008 55 276 1.7 5.2 0.00 0.00 0.00 50 1012.4
20260504024507 55 262 0.9 5.2 0.00 0.00 0.00 47 1012.4
20260504023006 56 245 1.7 5.2 0.00 0.00 0.00 45 1012.5
20260504021505 56 243 3.5 7.8 0.00 0.00 0.00 43 1012.4
20260504020004 57 267 1.7 5.2 0.00 0.00 0.00 44 1012.4
20260504014502 57 225 1.7 4.3 0.00 0.00 0.00 41 1012.3
20260504013113 57 245 2.6 7.0 0.00 0.00 0.00 39 1012.2
20260504011600 57 215 1.7 6.1 0.00 0.00 0.00 37 1012.1
20260504010115 58 217 0.9 3.5 0.00 0.00 0.00 37 1011.8
20260504004559 58 209 1.7 4.3 0.00 0.00 0.00 37 1011.7
20260504003059 58 237 2.6 5.2 0.00 0.00 0.00 36 1011.4
20260504001603 59 256 2.6 6.1 0.00 0.00 0.00 34 1011.2
20260504000059 59 250 1.7 8.7 0.00 0.00 0.00 34 1011.0
20260503234556 59 240 1.7 7.8 0.00 0.00 0.00 34 1010.9
20260503233102 60 288 1.7 7.0 0.00 0.00 0.00 30 1010.7
20260503231655 60 259 1.7 8.7 0.00 0.00 0.00 29 1010.5
20260503230055 61 6 3.5 10.4 0.00 0.00 0.00 28 1010.5
20260503224553 61 296 4.3 11.3 0.00 0.00 0.00 28 1010.4
20260503223053 61 39 4.3 13.0 0.00 0.00 0.00 28 1010.4
20260503221559 61 275 3.5 13.9 0.00 0.00 0.00 27 1010.2
20260503214551 61 248 5.2 13.9 0.00 0.00 0.00 27 1010.4
20260503213049 60 39 5.2 13.0 0.00 0.00 0.00 28 1010.3
20260503211548 60 354 7.8 17.4 0.00 0.00 0.00 28 1010.2
20260503210053 60 328 4.3 13.0 0.00 0.00 0.00 28 1010.2
20260503204558 60 19 7.8 14.8 0.00 0.00 0.00 29 1010.2
20260503203043 59 271 6.1 13.9 0.00 0.00 0.00 30 1010.2
20260503201542 59 269 4.3 12.2 0.00 0.00 0.00 30 1010.3
20260503200046 59 277 7.8 16.5 0.00 0.00 0.00 30 1010.4